Regional Weather Roundup
Issued by NWS

Home | Current Version | Previous Version | Graphics & Text | Print | Product List | Glossary On
Versions: 1 2 3 4 5 6 7 8 9 10 11 12 13 14 15 16 17 18 19 20 21 22 23 24 25 26 27 28 29 30 31 32 33 34 35 36 37 38 39 40 41 42 43 44 45 46 47 48 49 50
887
ASUS43 KFSD 191810
RWRSD

WEATHER ROUNDUP FOR SOUTH DAKOTA
NATIONAL WEATHER SERVICE SIOUX FALLS SD
1200 PM CST MON FEB 19 2018

NOTE: "FAIR" INDICATES FEW OR NO CLOUDS BELOW 12,000 FEET WITH NO
SIGNIFICANT WEATHER AND/OR OBSTRUCTIONS TO VISIBILITY.


SDZ001>005-009-010-012>017-191900-
NORTHWEST AND NORTH CENTRAL SOUTH DAKOTA

CITY           SKY/WX    TMP DP  RH WIND       PRES   REMARKS
BUFFALO          N/A      2  -5  72 NE9       29.97S WCI -13
FAITH            N/A      1  -2  87 N14       30.07S WCI -17
MOBRIDGE       LGT SNOW   8  -1  66 N15       30.09S VSB 3/4 WCI  -9
$$

SDZ012>016-024>037-041>051-057-063-072>074-191900-
SOUTHWEST AND SOUTH CENTRAL SOUTH DAKOTA

CITY           SKY/WX    TMP DP  RH WIND       PRES   REMARKS
RAPID CTY ARPT LGT SNOW   2  -4  76 N16       29.99F WCI -18
PIERRE         LGT SNOW   8   3  80 N20       30.06S WCI -11
CUSTER         LGT SNOW  -1  -8  72 NE9       29.69F VSB 1   WCI -16
ELLSWORTH AFB  CLOUDY     1  -2  85 N13       29.98  BLWGSNOWWCI -16
PHILIP         LGT SNOW   5   0  79 N21       30.06S WCI -16
PINE RIDGE     LGT SNOW   5  -2  72 N12       29.93F WCI -11
SPEARFISH      LGT SNOW  -2  -8  78 NE9       29.92F VSB 1   WCI -18
WINNER         LGT SNOW   9   4  80 N20       29.99S WCI -10
$$

SDZ004>011-016>023-039-040-191900-
NORTHEAST SOUTH DAKOTA

CITY           SKY/WX    TMP DP  RH WIND       PRES   REMARKS
ABERDEEN       FLURRIES  12   2  64 N22G32    30.09F WCI  -7
WATERTOWN      CLOUDY     9   5  84 N24G30    29.95S FOG     WCI -12
BROOKINGS      FLURRIES  13   8  81 N22G29    29.90F WCI  -6
SISSETON         N/A     12   5  73 N21       30.06F WCI  -7
$$

SDZ017-020-022-023-036>040-048>070-191900-
SOUTHEAST SOUTH DAKOTA

CITY           SKY/WX    TMP DP  RH WIND       PRES   REMARKS
SIOUX FALLS    LGT SNOW  17  12  80 NE15      29.88S WCI   2
HURON          CLOUDY    11   6  81 N20G29    30.01F WCI  -7
CHAMBERLAIN    LGT SNOW  12   7  82 N15G22    30.00S WCI  -4
MITCHELL       CLOUDY    15  10  80 N20       29.98F WCI  -2
YANKTON        FLURRIES  17  12  80 N15G22    29.89F WCI   2
$$

ABBREVIATIONS USED IN REMARKS
   TC - TEMPERATURE IN CELSIUS
  WCI - WIND CHILL INDEX
   HX - HEAT INDEX
  VSB - VISIBILITY





USA.gov is the U.S. government's official web portal to all federal, state and local government web resources and services.